Taos, NM

8:13 AM MDT on May 26, 2017 (GMT -0600)
Taos Municipal

Weather History for KSKX - March, 2013

Change the Weather History Date:

Saturday, March 23, 2013

  Actual Average Record
Temperature  
Mean Temperature 22 °F -  
Max Temperature 35 °F 56 °F 69 °F (1998)
Min Temperature 10 °F 23 °F 10 °F (2011)
Degree Days  
Heating Degree Days 42    
Moisture  
Dew Point 3 °F    
Average Humidity 40    
Maximum Humidity 86    
Minimum Humidity 17    
Precipitation  
Precipitation 0.00 in - - ()
Sea Level Pressure  
Sea Level Pressure 29.83 in    
Wind  
Wind Speed 12 mph (WNW)    
Max Wind Speed 29 mph    
Max Gust Speed 40 mph    
Visibility 10 miles    
Events      
Averages and records for this station are not official NWS values.
T = Trace of Precipitation, MM = Missing Value Source: NWS Daily Summary

Daily Weather History Graph

Daily Weather History Graph

Search for Another Location

Airport or City:

Trip Planner

Search our weather history database for the weather conditions in past years. The results will help you decide how hot, cold, wet, or windy it might be!

Date:

Astronomy

Mar. 23, 2013 Rise Set
Actual Time 7:01 AM MDT 7:17 PM MDT
Civil Twilight 6:35 AM MDT 7:43 PM MDT
Nautical Twilight 6:05 AM MDT 8:13 PM MDT
Astronomical Twilight 5:34 AM MDT 8:44 PM MDT
Moon 3:51 PM MDT (3/23) 4:33 AM MDT (3/23)
Length of Visible Light 13h 07m
Length of Day
12h 15m
Waxing Gibbous, 85% of the Moon is Illuminated
Mar 23
Waxing Gibbous
Mar 27
Full
Apr 2
Last Quarter
Apr 10
New
Apr 18
First Quarter

Hourly Weather History & Observations

Time (MDT) Temp. Windchill Dew Point Humidity Pressure Visibility Wind Dir Wind Speed Gust Speed Precip Events Conditions
12:15 AM 32.0 °F 26.4 °F 3.2 °F 30% 29.73 in 10.0 mi NNW 5.8 mph - N/A   Clear
12:35 AM 33.8 °F - 5.0 °F 30% 29.73 in 10.0 mi Calm Calm - N/A   Clear
12:55 AM 30.2 °F 24.3 °F -0.4 °F 27% 29.73 in 10.0 mi West 5.8 mph - N/A   Clear
1:15 AM 32.0 °F 27.5 °F 8.6 °F 38% 29.73 in 10.0 mi West 4.6 mph - N/A   Clear
1:35 AM 30.2 °F 22.6 °F 6.8 °F 37% 29.74 in 10.0 mi WSW 8.1 mph - N/A   Clear
1:55 AM 30.2 °F 21.3 °F 6.8 °F 37% 29.74 in 10.0 mi WSW 10.4 mph - N/A   Clear
2:15 AM 33.8 °F 24.8 °F 5.0 °F 30% 29.73 in 10.0 mi WSW 12.7 mph - N/A   Clear
2:35 AM 32.0 °F 23.6 °F 1.4 °F 27% 29.73 in 10.0 mi WSW 10.4 mph - N/A   Clear
2:55 AM 30.2 °F 20.8 °F -0.4 °F 27% 29.73 in 10.0 mi West 11.5 mph - N/A   Clear
3:15 AM 28.4 °F 19.7 °F -2.2 °F 27% 29.74 in 10.0 mi West 9.2 mph - N/A   Clear
3:35 AM 30.2 °F 21.3 °F -0.4 °F 27% 29.74 in 10.0 mi WSW 10.4 mph - N/A   Clear
3:55 AM 32.0 °F 23.0 °F -0.4 °F 25% 29.74 in 10.0 mi WSW 11.5 mph - N/A   Clear
4:15 AM 30.2 °F 21.3 °F -2.2 °F 25% 29.74 in 10.0 mi WSW 10.4 mph - N/A   Clear
4:35 AM 28.4 °F 20.4 °F -2.2 °F 27% 29.74 in 10.0 mi WSW 8.1 mph - N/A   Clear
4:55 AM 28.4 °F 19.1 °F -2.2 °F 27% 29.73 in 10.0 mi SW 10.4 mph - N/A   Clear
5:15 AM 28.4 °F 19.1 °F -2.2 °F 27% 29.73 in 10.0 mi SW 10.4 mph - N/A   Clear
5:35 AM 28.4 °F 19.7 °F -2.2 °F 27% 29.73 in 10.0 mi WSW 9.2 mph - N/A   Clear
5:55 AM 28.4 °F 21.2 °F -2.2 °F 27% 29.73 in 10.0 mi West 6.9 mph - N/A   Clear
6:15 AM 28.4 °F 20.4 °F -4.0 °F 25% 29.72 in 10.0 mi West 8.1 mph - N/A   Clear
6:35 AM 26.6 °F 17.5 °F -5.8 °F 24% 29.73 in 10.0 mi WNW 9.2 mph - N/A   Clear
7:15 AM 26.6 °F 14.3 °F -0.4 °F 31% 29.74 in 10.0 mi West 16.1 mph - N/A   Clear
7:35 AM 28.4 °F 17.0 °F 3.2 °F 34% 29.75 in 10.0 mi West 15.0 mph - N/A   Clear
7:55 AM 30.2 °F 19.3 °F 5.0 °F 34% 29.76 in 10.0 mi West 15.0 mph 20.7 mph N/A   Clear
8:15 AM 30.2 °F 18.5 °F 5.0 °F 34% 29.77 in 10.0 mi West 17.3 mph 23.0 mph N/A   Clear
8:35 AM 32.0 °F 21.6 °F 6.8 °F 35% 29.77 in 10.0 mi West 15.0 mph - N/A   Clear
8:55 AM 32.0 °F 20.5 °F 6.8 °F 35% 29.77 in 10.0 mi WSW 18.4 mph - N/A   Clear
9:15 AM 33.8 °F 23.5 °F 6.8 °F 32% 29.77 in 10.0 mi West 16.1 mph 23.0 mph N/A   Clear
9:35 AM 33.8 °F 23.2 °F 6.8 °F 32% 29.77 in 10.0 mi WNW 17.3 mph 23.0 mph N/A   Clear
9:55 AM 33.8 °F 23.9 °F 6.8 °F 32% 29.76 in 10.0 mi West 15.0 mph 23.0 mph N/A   Clear
10:15 AM 33.8 °F 21.3 °F 5.0 °F 30% 29.76 in 10.0 mi WSW 24.2 mph 32.2 mph N/A   Clear
10:35 AM 33.8 °F 20.5 °F 3.2 °F 28% 29.77 in 10.0 mi West 27.6 mph 34.5 mph N/A   Clear
10:55 AM 33.8 °F 22.5 °F 3.2 °F 28% 29.77 in 10.0 mi West 19.6 mph 26.5 mph N/A   Partly Cloudy
11:15 AM 32.0 °F 18.9 °F 1.4 °F 27% 29.78 in 10.0 mi WNW 24.2 mph 29.9 mph N/A   Clear
11:35 AM 33.8 °F 23.2 °F 1.4 °F 25% 29.78 in 10.0 mi West 17.3 mph 35.7 mph N/A   Partly Cloudy
11:55 AM 35.6 °F 24.5 °F -0.4 °F 22% 29.78 in 10.0 mi WNW 20.7 mph 32.2 mph N/A   Scattered Clouds
12:15 PM 35.6 °F 23.0 °F -2.2 °F 20% 29.77 in 10.0 mi West 27.6 mph 36.8 mph N/A   Partly Cloudy
12:35 PM 33.8 °F 20.5 °F -4.0 °F 20% 29.77 in 10.0 mi WNW 27.6 mph 34.5 mph N/A   Partly Cloudy
12:55 PM 33.8 °F 20.3 °F -5.8 °F 18% 29.76 in 10.0 mi West 28.8 mph 35.7 mph N/A   Partly Cloudy
1:15 PM 33.8 °F 22.2 °F -5.8 °F 18% 29.78 in 10.0 mi West 20.7 mph 40.3 mph N/A   Partly Cloudy
1:35 PM 33.8 °F 20.3 °F -5.8 °F 18% 29.78 in 10.0 mi West 28.8 mph 39.1 mph N/A   Mostly Cloudy
1:55 PM 33.8 °F 21.3 °F -7.6 °F 17% 29.79 in 10.0 mi West 24.2 mph 35.7 mph N/A   Overcast
2:15 PM 33.8 °F 22.2 °F -7.6 °F 17% 29.78 in 10.0 mi WNW 20.7 mph 34.5 mph N/A   Overcast
2:35 PM 33.8 °F 22.5 °F -7.6 °F 17% 29.78 in 10.0 mi WNW 19.6 mph 32.2 mph N/A   Overcast
2:55 PM 30.2 °F 18.1 °F -7.6 °F 19% 29.79 in 10.0 mi WNW 18.4 mph 34.5 mph N/A   Overcast
3:15 PM 28.4 °F 15.4 °F 1.4 °F 31% 29.81 in 10.0 mi North 19.6 mph 27.6 mph N/A   Overcast
3:35 PM 30.2 °F 18.1 °F 3.2 °F 32% 29.81 in 10.0 mi North 18.4 mph 24.2 mph N/A   Overcast
3:55 PM - - - N/A% 29.83 in 10.0 mi NNE 20.7 mph 33.4 mph N/A   Overcast
4:15 PM 24.8 °F 10.3 °F 10.4 °F 54% 29.85 in 10.0 mi NNE 20.7 mph 26.5 mph N/A   Overcast
4:35 PM 24.8 °F 10.3 °F 8.6 °F 50% 29.86 in 10.0 mi North 20.7 mph 27.6 mph N/A   Overcast
4:55 PM 24.8 °F 10.0 °F 8.6 °F 50% 29.88 in 10.0 mi North 21.9 mph 28.8 mph N/A   Overcast
5:15 PM 23.0 °F 9.2 °F 12.2 °F 63% 29.89 in 4.0 mi NNE 17.3 mph 25.3 mph N/A   Mostly Cloudy
5:35 PM 24.8 °F 12.4 °F 10.4 °F 54% 29.90 in 10.0 mi North 15.0 mph - N/A   Overcast
5:55 PM 23.0 °F 9.2 °F 10.4 °F 59% 29.91 in 3.0 mi North 17.3 mph 23.0 mph N/A   Overcast
6:15 PM 23.0 °F 10.1 °F 12.2 °F 63% 29.92 in 10.0 mi North 15.0 mph - N/A   Mostly Cloudy
6:35 PM 24.8 °F 11.9 °F 10.4 °F 54% 29.93 in 10.0 mi NNE 16.1 mph 19.6 mph N/A   Overcast
6:55 PM 24.8 °F 12.9 °F 10.4 °F 54% 29.95 in 10.0 mi North 13.8 mph - N/A   Scattered Clouds
7:15 PM 21.2 °F 9.5 °F 8.6 °F 58% 29.96 in 10.0 mi North 11.5 mph - N/A   Scattered Clouds
7:35 PM 21.2 °F 10.9 °F 8.6 °F 58% 29.97 in 10.0 mi North 9.2 mph - N/A   Overcast
7:55 PM 21.2 °F 10.1 °F 8.6 °F 58% 29.98 in 10.0 mi North 10.4 mph - N/A   Mostly Cloudy
8:15 PM 19.4 °F 9.5 °F 8.6 °F 63% 29.99 in 10.0 mi North 8.1 mph - N/A   Scattered Clouds
8:35 PM 17.6 °F 8.2 °F 8.6 °F 68% 30.00 in 10.0 mi NNW 6.9 mph - N/A   Clear
8:55 PM 15.8 °F 5.1 °F 6.8 °F 68% 30.01 in 10.0 mi NW 8.1 mph - N/A   Clear
9:15 PM 15.8 °F 5.1 °F 8.6 °F 73% 30.01 in 10.0 mi NW 8.1 mph - N/A   Clear
9:35 PM 14.0 °F 5.1 °F 6.8 °F 73% 30.02 in 10.0 mi NNW 5.8 mph - N/A   Clear
9:55 PM 12.2 °F 0.7 °F 5.0 °F 73% 30.03 in 10.0 mi WNW 8.1 mph - N/A   Clear
10:15 PM 12.2 °F 1.7 °F 6.8 °F 79% 30.04 in 10.0 mi NNW 6.9 mph - N/A   Clear
10:35 PM 12.2 °F 1.7 °F 6.8 °F 79% 30.05 in 10.0 mi North 6.9 mph - N/A   Clear
10:55 PM 12.2 °F 6.1 °F 8.6 °F 85% 30.05 in 10.0 mi WSW 3.5 mph - N/A   Clear
11:15 PM 14.0 °F - 10.4 °F 86% 30.06 in 10.0 mi Calm Calm - N/A   Clear
11:35 PM 10.4 °F -0.4 °F 3.2 °F 73% 30.06 in 10.0 mi NW 6.9 mph - N/A   Clear
11:55 PM 10.4 °F -2.4 °F 3.2 °F 73% 30.05 in 10.0 mi NW 9.2 mph - N/A   Clear